2023/05/13 00:00:00,14.4,13.0
2023/05/13 00:10:00,14.4,12.8
2023/05/13 00:20:00,14.5,12.7
2023/05/13 00:30:00,14.6,12.7
2023/05/13 00:40:00,14.5,12.8
2023/05/13 00:50:00,14.6,12.8
2023/05/13 01:00:00,14.5,12.8
2023/05/13 01:10:00,14.6,12.8
2023/05/13 01:20:00,14.7,12.7
2023/05/13 01:30:00,14.7,12.7
2023/05/13 01:40:00,14.7,12.9
2023/05/13 01:50:00,14.7,12.7
2023/05/13 02:00:00,14.8,12.8
2023/05/13 02:10:00,14.9,12.6
2023/05/13 02:20:00,14.8,12.6
2023/05/13 02:30:00,14.7,13.1
2023/05/13 02:40:00,14.6,12.8
2023/05/13 02:50:00,14.7,12.1
2023/05/13 03:00:00,15.1,12.2
2023/05/13 03:10:00,15.2,12.4
2023/05/13 03:20:00,15.1,12.5
2023/05/13 03:30:00,14.9,12.5
2023/05/13 03:40:00,15.1,12.5
2023/05/13 03:50:00,15.0,12.3
2023/05/13 04:00:00,15.1,12.4
2023/05/13 04:10:00,15.4,12.4
2023/05/13 04:20:00,15.3,12.1
2023/05/13 04:30:00,15.2,12.6
2023/05/13 04:40:00,15.2,12.2
2023/05/13 04:50:00,14.8,12.1
2023/05/13 05:00:00,15.1,12.4
2023/05/13 05:10:00,15.0,12.3
2023/05/13 05:20:00,15.0,12.4
2023/05/13 05:30:00,15.6,12.2
2023/05/13 05:40:00,15.9,12.2
2023/05/13 05:50:00,16.8,12.1
2023/05/13 06:00:00,17.4,12.1
2023/05/13 06:10:00,17.5,12.0
2023/05/13 06:20:00,17.3,12.0
2023/05/13 06:30:00,17.4,12.1
2023/05/13 06:40:00,17.5,12.3
2023/05/13 06:50:00,17.3,12.3
2023/05/13 07:00:00,17.4,12.4
2023/05/13 07:10:00,17.3,12.7
2023/05/13 07:20:00,17.2,12.6
2023/05/13 07:30:00,17.2,13.0
2023/05/13 07:40:00,17.2,13.2
2023/05/13 07:50:00,17.2,13.4
2023/05/13 08:00:00,17.0,13.0
2023/05/13 08:10:00,16.7,13.4
2023/05/13 08:20:00,16.6,13.6
2023/05/13 08:30:00,16.8,13.7
2023/05/13 08:40:00,16.8,14.4
2023/05/13 08:50:00,16.2,14.8
2023/05/13 09:00:00,14.9,15.3
2023/05/13 09:10:00,14.2,15.8
2023/05/13 09:20:00,13.8,17.0
2023/05/13 09:30:00,13.2,17.0
2023/05/13 09:40:00,13.6,17.1
2023/05/13 09:50:00,15.1,17.3
2023/05/13 10:00:00,15.2,17.8
2023/05/13 10:10:00,15.4,17.1
2023/05/13 10:20:00,15.4,17.5
2023/05/13 10:30:00,15.3,17.0
2023/05/13 10:40:00,15.4,17.3
2023/05/13 10:50:00,15.7,17.3
2023/05/13 11:00:00,14.9,17.2
2023/05/13 11:10:00,14.6,17.3
2023/05/13 11:20:00,15.1,16.9
2023/05/13 11:30:00,15.5,16.8
2023/05/13 11:40:00,16.0,16.8
2023/05/13 11:50:00,16.2,17.3
2023/05/13 12:00:00,16.5,17.6
2023/05/13 12:10:00,16.5,17.8
2023/05/13 12:20:00,16.4,18.2
2023/05/13 12:30:00,15.9,18.0
2023/05/13 12:40:00,15.9,17.5
2023/05/13 12:50:00,16.3,17.4
2023/05/13 13:00:00,15.4,17.6
2023/05/13 13:10:00,14.4,17.2
2023/05/13 13:20:00,15.0,17.2
2023/05/13 13:30:00,15.4,16.8
2023/05/13 13:40:00,15.9,16.7
2023/05/13 13:50:00,15.7,16.4
2023/05/13 14:00:00,15.4,15.8
2023/05/13 14:10:00,14.2,15.7
2023/05/13 14:20:00, 9.5,14.8
2023/05/13 14:30:00, 5.3,14.3
2023/05/13 14:40:00, 5.2,14.2
2023/05/13 14:50:00, 4.5,13.8
2023/05/13 15:00:00, 2.8,13.6
2023/05/13 15:10:00, 2.4,13.3
2023/05/13 15:20:00, 0.9,13.1
2023/05/13 15:30:00, 0.3,13.1
2023/05/13 15:40:00, 0.3,12.9
2023/05/13 15:50:00, 0.4,12.8
2023/05/13 16:00:00, 0.4,12.5
2023/05/13 16:10:00, 0.7,12.4
2023/05/13 16:20:00, 1.3,12.5
2023/05/13 16:30:00, 1.4,12.2
2023/05/13 16:40:00, 1.0,12.0
2023/05/13 16:50:00, 1.9,12.2
2023/05/13 17:00:00, 0.5,12.3
2023/05/13 17:10:00, 1.5,12.0
2023/05/13 17:20:00, 1.3,12.0
2023/05/13 17:30:00, 0.7,11.9
2023/05/13 17:40:00, 0.4,11.9
2023/05/13 17:50:00, 0.5,11.9
2023/05/13 18:00:00, 0.4,11.9
2023/05/13 18:10:00, 0.3,11.8
2023/05/13 18:20:00, 0.7,11.9
2023/05/13 18:30:00, 0.1,11.8
2023/05/13 18:40:00, 1.7,11.6
2023/05/13 18:50:00, 0.6,11.8
2023/05/13 19:00:00, 0.7,11.6
2023/05/13 19:10:00, 1.4,11.5
2023/05/13 19:20:00, 1.1,11.7
2023/05/13 19:30:00, 5.8,11.8
2023/05/13 19:40:00, 7.4,11.7
2023/05/13 19:50:00, 6.6,11.8
2023/05/13 20:00:00, 9.0,12.0
2023/05/13 20:10:00, 9.6,12.2
2023/05/13 20:20:00,11.0,11.6
2023/05/13 20:30:00,11.2,12.0
2023/05/13 20:40:00, 7.3,12.4
2023/05/13 20:50:00, 3.9,12.4
2023/05/13 21:00:00, 1.9,12.5
2023/05/13 21:10:00, 4.6,12.9
2023/05/13 21:20:00, 3.5,12.5
2023/05/13 21:30:00, 2.5,12.6
2023/05/13 21:40:00, 2.2,12.8
2023/05/13 21:50:00, 3.0,12.5
2023/05/13 22:00:00, 3.5,12.6
2023/05/13 22:10:00, 4.9,12.7
2023/05/13 22:20:00, 9.9,13.0
2023/05/13 22:30:00, 5.6,12.9
2023/05/13 22:40:00, 0.9,12.9
2023/05/13 22:50:00, 0.1,12.6
2023/05/13 23:00:00, 0.1,12.4
2023/05/13 23:10:00, 0.1,12.4
2023/05/13 23:20:00, 0.2,12.5
2023/05/13 23:30:00, 0.3,12.5
2023/05/13 23:40:00, 0.2,12.3
2023/05/13 23:50:00, 0.4,12.2
